KF0ZH Weather Reports


time (UTC)temp
F
wind
direction
speed
knots
gust
knots
rain 1hr
in
rain 24hr
in
rain mn
in
humidity
%
barometer
mb
20210916104101 69 171 0.0 5.2 0.00 0.00 0.00 72 1009.9
20210916103602 69 225 3.5 10.4 0.00 0.00 0.00 72 1010.0
20210916103135 69 195 0.0 10.4 0.00 0.00 0.00 72 1009.9
20210916103101 69 195 0.0 10.4 0.00 0.00 0.00 72 1009.9
20210916102601 69 177 0.0 7.0 0.00 0.00 0.00 72 1010.0
20210916102101 69 168 0.0 7.0 0.00 0.00 0.00 72 1010.0
20210916101601 69 160 10.4 10.4 0.00 0.00 0.00 72 1010.0
20210916101101 69 156 0.0 7.8 0.00 0.00 0.00 72 1010.0
20210916100601 69 175 9.6 13.0 0.00 0.00 0.00 72 1010.0
20210916100101 69 177 7.8 10.4 0.00 0.00 0.00 72 1010.2
20210916095601 69 165 7.0 7.8 0.00 0.00 0.00 72 1010.1
20210916095101 69 149 0.0 7.8 0.00 0.00 0.00 72 1010.1
20210916094602 69 136 4.3 7.0 0.00 0.00 0.00 72 1010.1
20210916094101 69 170 7.8 13.9 0.00 0.00 0.00 72 1010.1
20210916093601 69 189 2.6 7.0 0.00 0.00 0.00 72 1010.2
20210916093102 69 158 0.0 7.0 0.00 0.00 0.00 72 1010.3
20210916092602 69 181 0.0 5.2 0.00 0.00 0.00 72 1010.3
20210916092101 69 185 3.5 8.7 0.00 0.00 0.00 72 1010.2
20210916091601 69 219 0.0 15.6 0.00 0.00 0.00 71 1010.2
20210916091102 69 168 6.1 7.0 0.00 0.00 0.00 71 1010.2
20210916090601 69 167 7.0 10.4 0.00 0.00 0.00 71 1010.3
20210916090102 69 160 6.1 18.2 0.00 0.00 0.00 71 1010.3
20210916085602 69 171 0.0 7.0 0.00 0.00 0.00 71 1010.3
20210916085102 69 144 0.0 13.0 0.00 0.00 0.00 71 1010.3
20210916084601 69 165 7.8 8.7 0.00 0.00 0.00 71 1010.3
20210916084101 69 192 0.0 10.4 0.00 0.00 0.00 71 1010.2
20210916083602 69 153 7.0 8.7 0.00 0.00 0.00 71 1010.3
20210916083101 69 184 7.0 12.2 0.00 0.00 0.00 70 1010.3
20210916082645 69 251 8.7 11.3 0.00 0.00 0.00 70 1010.4
20210916082601 69 251 8.7 11.3 0.00 0.00 0.00 70 1010.4
20210916082101 69 147 9.6 9.6 0.00 0.00 0.00 71 1010.6
20210916081601 69 182 0.0 10.4 0.00 0.00 0.00 71 1010.5
20210916081101 69 241 1.7 4.3 0.00 0.00 0.00 71 1010.6
20210916080601 68 175 0.0 1.7 0.00 0.00 0.00 72 1010.7
20210916080102 68 201 0.0 5.2 0.00 0.00 0.00 72 1010.7
20210916075601 68 251 0.0 0.0 0.00 0.00 0.00 72 1010.8
20210916075102 68 177 0.0 0.0 0.00 0.00 0.00 72 1010.8
20210916074601 68 223 0.0 5.2 0.00 0.00 0.00 72 1010.9
20210916074102 68 151 0.0 4.3 0.00 0.00 0.00 72 1010.9
20210916073602 68 195 2.6 5.2 0.00 0.00 0.00 72 1011.0
20210916073102 68 191 2.6 7.8 0.00 0.00 0.00 72 1011.0
20210916072601 68 178 4.3 6.1 0.00 0.00 0.00 72 1011.1
20210916072102 68 212 3.5 10.4 0.00 0.00 0.00 72 1011.0
20210916071601 68 149 9.6 9.6 0.00 0.00 0.00 71 1011.1
20210916071101 68 112 1.7 6.1 0.00 0.00 0.00 71 1011.1
20210916070602 69 220 0.0 6.1 0.00 0.00 0.00 71 1011.1
20210916070102 69 182 0.0 11.3 0.00 0.00 0.00 71 1011.1
20210916065634 69 177 0.0 7.0 0.00 0.00 0.00 70 1011.1
20210916065603 69 177 0.0 7.0 0.00 0.00 0.00 70 1011.1
20210916065102 69 189 0.0 7.0 0.00 0.00 0.00 70 1011.1
20210916064602 69 188 4.3 4.3 0.00 0.00 0.00 70 1011.0
20210916064101 69 182 0.0 1.7 0.00 0.00 0.00 69 1011.0
20210916063602 69 189 0.0 10.4 0.00 0.00 0.00 69 1011.0
20210916063102 69 163 7.8 8.7 0.00 0.00 0.00 68 1010.9
20210916062601 69 172 6.1 8.7 0.00 0.00 0.00 68 1010.9
20210916062102 69 168 3.5 7.8 0.00 0.00 0.00 68 1011.0
20210916061602 69 151 3.5 18.2 0.00 0.00 0.00 67 1011.0
20210916061101 70 202 0.0 4.3 0.00 0.00 0.00 67 1011.1
20210916060601 70 150 6.1 7.8 0.00 0.00 0.00 67 1011.1
20210916060101 70 157 0.0 8.7 0.00 0.00 0.00 66 1011.1
20210916055601 70 212 6.1 14.8 0.00 0.00 0.00 66 1011.2
20210916055101 70 208 4.3 8.7 0.00 0.00 0.00 66 1011.4
20210916054604 70 201 3.5 13.0 0.00 0.00 0.00 65 1011.4
20210916054102 70 180 4.3 11.3 0.00 0.00 0.00 65 1011.5
20210916053601 70 156 4.3 10.4 0.00 0.00 0.00 64 1011.6
20210916053101 70 147 0.0 13.0 0.00 0.00 0.00 64 1011.5
20210916052601 70 156 5.2 16.5 0.00 0.00 0.00 64 1011.6
20210916052102 70 195 4.3 10.4 0.00 0.00 0.00 64 1011.6
20210916051601 70 216 4.3 10.4 0.00 0.00 0.00 64 1011.6
20210916051101 70 95 0.0 0.0 0.00 0.00 0.00 65 1011.5
20210916050601 69 164 5.2 9.6 0.00 0.00 0.00 66 1011.5
20210916050101 69 161 4.3 10.4 0.00 0.00 0.00 66 1011.5
20210916045601 69 184 6.1 8.7 0.00 0.00 0.00 66 1011.6
20210916045101 69 153 0.0 4.3 0.00 0.00 0.00 67 1011.6
20210916044601 69 130 0.0 3.5 0.00 0.00 0.00 67 1011.8
20210916044102 69 157 0.0 0.0 0.00 0.00 0.00 67 1011.8
20210916043601 68 151 5.2 6.1 0.00 0.00 0.00 66 1011.9
20210916043101 68 198 0.0 0.0 0.00 0.00 0.00 66 1011.8
20210916042601 68 198 0.0 0.0 0.00 0.00 0.00 66 1011.8
20210916042102 69 198 0.0 0.0 0.00 0.00 0.00 66 1011.9
20210916041601 69 188 0.0 0.0 0.00 0.00 0.00 65 1012.0
20210916041102 69 172 0.0 0.0 0.00 0.00 0.00 65 1012.0
20210916040602 69 146 0.0 0.0 0.00 0.00 0.00 65 1012.0
20210916040133 69 146 0.0 0.0 0.00 0.00 0.00 64 1012.0
20210916040101 69 146 0.0 0.0 0.00 0.00 0.00 64 1012.0
20210916035601 69 180 0.0 0.0 0.00 0.00 0.00 64 1012.0
20210916035141 69 180 0.0 0.0 0.00 0.00 0.00 63 1012.0
20210916035101 69 180 0.0 0.0 0.00 0.00 0.00 63 1012.0
20210916034601 70 180 0.0 0.0 0.00 0.00 0.00 63 1012.0
20210916034101 70 180 0.0 0.0 0.00 0.00 0.00 62 1011.9
20210916033601 70 168 7.0 7.0 0.00 0.00 0.00 61 1011.9
20210916033101 70 158 0.0 0.0 0.00 0.00 0.00 61 1011.9
20210916032601 70 139 0.0 0.0 0.00 0.00 0.00 61 1011.8
20210916032102 71 151 0.0 0.0 0.00 0.00 0.00 61 1011.8
20210916031601 71 151 0.0 0.0 0.00 0.00 0.00 60 1011.7
20210916031102 71 153 7.0 10.4 0.00 0.00 0.00 60 1011.7
20210916030607 71 175 0.0 6.1 0.00 0.00 0.00 60 1011.7
20210916030105 71 146 0.0 5.2 0.00 0.00 0.00 59 1011.6
20210916025604 71 115 0.0 7.0 0.00 0.00 0.00 59 1011.5
20210916025138 71 151 0.0 7.8 0.00 0.00 0.00 58 1011.5
20210916025104 71 151 0.0 7.8 0.00 0.00 0.00 58 1011.5
20210916024651 71 167 6.1 11.3 0.00 0.00 0.00 58 1011.4
20210916024604 71 167 6.1 11.3 0.00 0.00 0.00 58 1011.4
20210916024104 71 195 0.0 2.6 0.00 0.00 0.00 58 1011.4
20210916023605 71 170 0.0 4.3 0.00 0.00 0.00 59 1011.4
20210916023105 71 158 0.0 2.6 0.00 0.00 0.00 58 1011.2
20210916022604 71 146 0.0 7.0 0.00 0.00 0.00 58 1011.4
20210916022139 71 165 0.0 5.2 0.00 0.00 0.00 58 1011.2
20210916022105 71 165 0.0 5.2 0.00 0.00 0.00 58 1011.2
20210916021604 71 158 0.0 7.0 0.00 0.00 0.00 58 1011.2
20210916021104 71 160 0.0 0.0 0.00 0.00 0.00 58 1011.1
20210916020605 71 161 0.0 4.3 0.00 0.00 0.00 57 1011.1
20210916020104 71 172 7.0 7.0 0.00 0.00 0.00 56 1011.1
20210916015604 71 165 0.0 7.8 0.00 0.00 0.00 57 1011.1
20210916015107 71 174 3.5 3.5 0.00 0.00 0.00 56 1011.0
20210916014604 71 158 0.0 0.0 0.00 0.00 0.00 56 1011.0
20210916014138 71 178 0.0 7.0 0.00 0.00 0.00 56 1011.1
20210916014104 71 178 0.0 7.0 0.00 0.00 0.00 56 1011.1
20210916013604 71 185 0.0 0.0 0.00 0.00 0.00 56 1011.1
20210916013105 71 185 0.0 0.0 0.00 0.00 0.00 56 1011.1
20210916012604 71 185 0.0 0.0 0.00 0.00 0.00 56 1011.1
20210916012104 71 185 0.0 0.0 0.00 0.00 0.00 56 1011.0
20210916011604 71 139 0.0 0.0 0.00 0.00 0.00 56 1011.0
20210916011104 71 132 0.0 4.3 0.00 0.00 0.00 57 1011.0
20210916010604 71 210 0.0 0.0 0.00 0.00 0.00 57 1010.9
20210916010104 71 210 0.0 0.0 0.00 0.00 0.00 56 1010.9
20210916005605 71 210 0.0 0.0 0.00 0.00 0.00 56 1010.9
20210916005104 72 210 0.0 0.0 0.00 0.00 0.00 56 1011.0
20210916004605 72 210 0.0 0.0 0.00 0.00 0.00 55 1010.8
20210916004104 72 210 0.0 0.0 0.00 0.00 0.00 55 1010.8
20210916003605 72 210 0.0 0.0 0.00 0.00 0.00 55 1010.8
20210916003104 72 210 0.0 0.0 0.00 0.00 0.00 55 1010.8
20210916002605 72 210 0.0 0.0 0.00 0.00 0.00 55 1010.7
20210916002105 73 210 0.0 0.0 0.00 0.00 0.00 54 1010.7
20210916001604 73 210 0.0 0.0 0.00 0.00 0.00 54 1010.7
20210916001104 73 210 0.0 0.0 0.00 0.00 0.00 53 1010.7
20210916000605 74 210 0.0 0.0 0.00 0.00 0.00 52 1010.6
20210916000105 74 210 0.0 0.0 0.00 0.00 0.00 52 1010.6
20210915235604 75 210 0.0 0.0 0.00 0.00 0.00 51 1010.5
20210915235104 75 210 0.0 0.0 0.00 0.00 0.00 50 1010.5
20210915234606 75 210 0.0 0.0 0.00 0.00 0.00 50 1010.6
20210915234104 76 210 0.0 0.0 0.00 0.00 0.00 49 1010.5
20210915233605 76 210 0.0 0.0 0.00 0.00 0.00 49 1010.5
20210915233104 76 210 0.0 0.0 0.00 0.00 0.00 48 1010.5
20210915232605 76 210 0.0 0.0 0.00 0.00 0.00 48 1010.6
20210915232104 76 210 0.0 2.6 0.00 0.00 0.00 47 1010.6
20210915231604 77 150 0.0 0.0 0.00 0.00 0.00 47 1010.8
20210915231142 77 150 0.0 5.2 0.00 0.00 0.00 46 1010.8
20210915231104 77 150 0.0 5.2 0.00 0.00 0.00 46 1010.8
20210915230604 77 127 0.0 4.3 0.00 0.00 0.00 45 1010.8
20210915230104 77 116 0.0 0.0 0.00 0.00 0.00 46 1010.9
20210915225606 77 116 0.0 0.0 0.00 0.00 0.00 45 1011.0
20210915225104 77 165 0.0 7.0 0.00 0.00 0.00 45 1011.0
20210915224604 77 205 3.5 6.1 0.00 0.00 0.00 44 1011.1
20210915224104 77 192 0.0 0.0 0.00 0.00 0.00 45 1011.1
20210915223636 77 195 5.2 6.1 0.00 0.00 0.00 44 1011.4
20210915223604 77 195 5.2 6.1 0.00 0.00 0.00 44 1011.4
20210915223105 78 137 0.0 11.3 0.00 0.00 0.00 44 1011.2
20210915222604 78 177 0.0 5.2 0.00 0.00 0.00 43 1011.4
20210915222106 78 184 0.0 0.0 0.00 0.00 0.00 44 1011.4
20210915221604 78 201 0.0 0.0 0.00 0.00 0.00 43 1011.4
20210915221141 78 205 3.5 3.5 0.00 0.00 0.00 45 1011.4
20210915221104 78 205 3.5 3.5 0.00 0.00 0.00 45 1011.4
20210915220609 77 230 3.5 6.1 0.00 0.00 0.00 44 1011.5
20210915220104 77 150 0.0 5.2 0.00 0.00 0.00 42 1011.6
20210915215604 77 187 0.0 7.0 0.00 0.00 0.00 43 1011.7
20210915215104 78 151 0.0 0.0 0.00 0.00 0.00 42 1011.8
20210915214604 78 156 0.0 0.0 0.00 0.00 0.00 43 1011.9
20210915214135 78 167 3.5 3.5 0.00 0.00 0.00 42 1011.9
20210915214104 78 167 3.5 3.5 0.00 0.00 0.00 42 1011.9
20210915213604 78 149 0.0 0.0 0.00 0.00 0.00 43 1011.9
20210915213105 78 192 0.0 9.6 0.00 0.00 0.00 42 1012.0
20210915212604 78 185 0.0 0.0 0.00 0.00 0.00 44 1012.0
20210915212105 78 127 0.0 0.0 0.00 0.00 0.00 42 1012.0
20210915211604 78 191 0.0 7.0 0.00 0.00 0.00 43 1012.1
20210915211104 78 157 0.0 0.0 0.00 0.00 0.00 42 1012.2
20210915210605 78 165 0.0 0.0 0.00 0.00 0.00 44 1012.2
20210915210231 79 165 0.0 6.1 0.00 0.00 0.00 44 1012.3
20210915210141 79 165 0.0 6.1 0.00 0.00 0.00 44 1012.3
20210915210104 79 165 0.0 6.1 0.00 0.00 0.00 44 1012.3
20210915205605 79 160 3.5 3.5 0.00 0.00 0.00 43 1012.4
20210915205104 79 146 0.0 6.1 0.00 0.00 0.00 43 1012.5
20210915204604 78 147 0.0 0.0 0.00 0.00 0.00 43 1012.6
20210915204104 78 157 0.0 0.0 0.00 0.00 0.00 43 1012.7
20210915203604 78 157 0.0 0.0 0.00 0.00 0.00 44 1012.7
20210915203104 78 157 0.0 11.3 0.00 0.00 0.00 40 1012.9
20210915202604 78 157 0.0 3.5 0.00 0.00 0.00 42 1013.0
20210915202104 78 157 0.0 0.0 0.00 0.00 0.00 38 1013.0
20210915201604 78 172 0.0 5.2 0.00 0.00 0.00 42 1013.1
20210915201104 78 233 0.0 3.5 0.00 0.00 0.00 41 1013.2
20210915200604 78 248 0.0 7.8 0.00 0.00 0.00 41 1013.2
20210915200105 78 149 4.3 5.2 0.00 0.00 0.00 43 1013.3
20210915195604 78 158 0.0 6.1 0.00 0.00 0.00 43 1013.3
20210915195104 78 177 0.0 7.0 0.00 0.00 0.00 42 1013.5
20210915194604 78 226 0.0 7.8 0.00 0.00 0.00 42 1013.6
20210915194104 78 127 0.0 8.7 0.00 0.00 0.00 42 1013.7
20210915193604 78 257 0.0 6.1 0.00 0.00 0.00 42 1013.7
20210915193105 78 147 0.0 4.3 0.00 0.00 0.00 40 1013.8
20210915192604 78 255 0.0 7.0 0.00 0.00 0.00 40 1013.8
20210915192104 78 177 0.0 0.0 0.00 0.00 0.00 40 1013.9
20210915191604 78 260 0.0 0.0 0.00 0.00 0.00 42 1013.9
20210915191104 78 265 3.5 7.8 0.00 0.00 0.00 41 1014.0
20210915190604 78 192 0.0 5.2 0.00 0.00 0.00 41 1014.1
20210915190104 78 205 0.0 5.2 0.00 0.00 0.00 39 1014.2
20210915185604 78 226 0.0 9.6 0.00 0.00 0.00 42 1014.4
20210915185146 77 167 0.0 5.2 0.00 0.00 0.00 42 1014.4
20210915185104 77 167 0.0 5.2 0.00 0.00 0.00 42 1014.4
20210915184604 77 153 0.0 2.6 0.00 0.00 0.00 44 1014.5
20210915184104 76 187 2.6 8.7 0.00 0.00 0.00 42 1014.5
20210915183604 76 164 7.0 13.0 0.00 0.00 0.00 42 1014.6
20210915183104 76 181 0.0 5.2 0.00 0.00 0.00 43 1014.6
20210915182604 77 191 0.0 7.0 0.00 0.00 0.00 42 1014.7
20210915182104 77 161 0.0 9.6 0.00 0.00 0.00 43 1014.8
20210915181604 77 226 0.0 5.2 0.00 0.00 0.00 44 1014.8
20210915181104 77 212 0.0 9.6 0.00 0.00 0.00 43 1015.0
20210915180604 76 208 2.6 5.2 0.00 0.00 0.00 45 1014.8
20210915180104 76 223 3.5 11.3 0.00 0.00 0.00 45 1015.0
20210915175604 76 182 2.6 4.3 0.00 0.00 0.00 46 1015.0
20210915175104 76 210 2.6 2.6 0.00 0.00 0.00 49 1015.1
20210915174604 75 198 0.0 0.0 0.00 0.00 0.00 53 1015.2
20210915174105 75 143 3.5 7.8 0.00 0.00 0.00 52 1015.3
20210915173604 75 137 0.0 0.0 0.00 0.00 0.00 57 1015.3
20210915173104 74 163 0.0 3.5 0.00 0.00 0.00 56 1015.4
20210915172604 74 188 0.0 1.7 0.00 0.00 0.00 58 1015.4
20210915172104 74 136 3.5 7.0 0.00 0.00 0.00 58 1015.5
20210915171604 74 161 0.0 0.0 0.00 0.00 0.00 61 1015.6
20210915171104 73 219 0.0 4.3 0.00 0.00 0.00 61 1015.7
20210915170605 73 184 0.0 10.4 0.00 0.00 0.00 61 1015.7
20210915170104 73 182 0.0 0.0 0.00 0.00 0.00 61 1015.7
20210915165604 73 136 6.1 8.7 0.00 0.00 0.00 61 1015.8
20210915165146 73 227 3.5 3.5 0.00 0.00 0.00 63 1015.9
20210915165104 73 227 3.5 3.5 0.00 0.00 0.00 63 1015.9
20210915164604 72 180 0.0 0.0 0.00 0.00 0.00 62 1015.8
20210915164104 72 158 0.0 5.2 0.00 0.00 0.00 61 1015.9
20210915163604 71 182 3.5 4.3 0.00 0.00 0.00 63 1015.9
20210915163104 71 180 1.7 1.7 0.00 0.00 0.00 61 1016.0
20210915162604 71 180 0.0 4.3 0.00 0.00 0.00 64 1016.1
20210915162140 71 198 0.0 0.0 0.00 0.00 0.00 66 1016.1
20210915162104 71 198 0.0 0.0 0.00 0.00 0.00 66 1016.1
20210915161604 70 198 0.0 0.0 0.00 0.00 0.00 65 1016.1
20210915161104 70 198 0.0 0.0 0.00 0.00 0.00 65 1016.2
20210915160603 69 135 4.3 6.1 0.00 0.00 0.00 64 1016.3
20210915160136 69 165 0.0 0.0 0.00 0.00 0.00 69 1016.4
20210915160103 69 165 0.0 0.0 0.00 0.00 0.00 69 1016.4
20210915155603 68 165 0.0 0.0 0.00 0.00 0.00 69 1016.5
20210915155137 68 165 0.0 0.0 0.00 0.00 0.00 69 1016.4
20210915155104 68 165 0.0 0.0 0.00 0.00 0.00 69 1016.4
20210915154604 68 209 0.0 0.0 0.00 0.00 0.00 68 1016.5
20210915154137 67 262 0.0 0.0 0.00 0.00 0.00 68 1016.5
20210915154104 67 262 0.0 0.0 0.00 0.00 0.00 68 1016.5
20210915153604 67 146 0.0 0.0 0.00 0.00 0.00 70 1016.5
20210915153104 66 209 0.0 0.0 0.00 0.00 0.00 72 1016.6
20210915152603 65 209 0.0 0.0 0.00 0.00 0.00 71 1016.6
20210915152104 65 215 0.0 1.7 0.00 0.00 0.00 71 1016.6
20210915151605 65 244 0.0 1.7 0.00 0.00 0.00 72 1016.5
20210915151107 64 250 4.3 5.2 0.00 0.00 0.00 70 1016.5
20210915150604 64 248 0.0 0.0 0.00 0.00 0.00 75 1016.5
20210915150141 64 358 0.0 0.0 0.00 0.00 0.00 76 1016.5
20210915150103 64 358 0.0 0.0 0.00 0.00 0.00 76 1016.5
20210915145604 63 239 3.5 3.5 0.00 0.00 0.00 75 1016.5
20210915145104 62 188 0.0 0.0 0.00 0.00 0.00 76 1016.4
20210915144606 62 188 0.0 0.0 0.00 0.00 0.00 78 1016.4
20210915144104 61 268 0.0 6.1 0.00 0.00 0.00 78 1016.4
20210915143604 60 246 0.0 0.0 0.00 0.00 0.00 81 1016.4
20210915143104 60 239 3.5 4.3 0.00 0.00 0.00 82 1016.4
20210915142604 59 219 0.0 0.0 0.00 0.00 0.00 82 1016.3
20210915142105 59 219 0.0 0.0 0.00 0.00 0.00 83 1016.4
20210915141604 58 240 0.0 0.0 0.00 0.00 0.00 84 1016.2
20210915141105 58 243 3.5 5.2 0.00 0.00 0.00 84 1016.3
20210915140604 58 258 3.5 4.3 0.00 0.00 0.00 86 1016.2
20210915140105 57 196 0.0 3.5 0.00 0.00 0.00 87 1016.3
20210915135610 57 217 0.0 0.0 0.00 0.00 0.00 91 1016.3
20210915135136 56 234 0.0 0.0 0.00 0.00 0.00 95 1016.2
20210915135103 56 234 0.0 0.0 0.00 0.00 0.00 95 1016.2
20210915134603 55 234 0.0 0.0 0.00 0.00 0.00 99 1016.3
20210915134104 54 234 0.0 0.0 0.00 0.00 0.00 99 1016.3
20210915133604 54 234 0.0 0.0 0.00 0.00 0.00 99 1016.2
20210915133140 53 234 0.0 0.0 0.00 0.00 0.00 99 1016.3
20210915133104 53 234 0.0 0.0 0.00 0.00 0.00 99 1016.3
20210915132603 53 234 0.0 0.0 0.00 0.00 0.00 99 1016.3
20210915132103 52 234 0.0 0.0 0.00 0.00 0.00 99 1016.3
20210915131607 52 234 0.0 0.0 0.00 0.00 0.00 99 1016.1
20210915131106 51 234 0.0 0.0 0.00 0.00 0.00 99 1016.2
20210915130606 51 234 0.0 0.0 0.00 0.00 0.00 99 1016.2
20210915130103 50 234 0.0 0.0 0.00 0.00 0.00 99 1016.3
20210915125639 50 234 0.0 0.0 0.00 0.00 0.00 99 1016.2
20210915125604 50 234 0.0 0.0 0.00 0.00 0.00 99 1016.2
20210915125105 50 234 0.0 0.0 0.00 0.00 0.00 99 1016.2
20210915124607 49 234 0.0 0.0 0.00 0.00 0.00 99 1016.2
20210915124149 49 234 0.0 0.0 0.00 0.00 0.00 99 1016.2
20210915124103 49 234 0.0 0.0 0.00 0.00 0.00 99 1016.2
20210915123605 49 234 0.0 0.0 0.00 0.00 0.00 99 1016.1
20210915123104 48 234 0.0 0.0 0.00 0.00 0.00 99 1016.0
20210915122640 48 234 0.0 0.0 0.00 0.00 0.00 99 1016.0
20210915122607 48 234 0.0 0.0 0.00 0.00 0.00 99 1016.0
20210915122139 48 234 0.0 0.0 0.00 0.00 0.00 99 1015.9
20210915122103 48 234 0.0 0.0 0.00 0.00 0.00 99 1015.9
20210915121656 48 234 0.0 0.0 0.00 0.00 0.00 99 1015.9
20210915121603 48 234 0.0 0.0 0.00 0.00 0.00 99 1015.9
20210915121105 48 234 0.0 0.0 0.00 0.00 0.00 99 1015.8
20210915120707 48 234 0.0 0.0 0.00 0.00 0.00 99 1016.0
20210915120605 48 234 0.0 0.0 0.00 0.00 0.00 99 1016.0
20210915120104 48 234 0.0 0.0 0.00 0.00 0.00 99 1015.9
20210915115607 48 234 0.0 0.0 0.00 0.00 0.00 99 1015.8
20210915115142 48 234 0.0 0.0 0.00 0.00 0.00 99 1015.8
20210915115103 48 234 0.0 0.0 0.00 0.00 0.00 99 1015.8
20210915114604 48 234 0.0 0.0 0.00 0.00 0.00 99 1015.8
20210915114104 49 234 0.0 0.0 0.00 0.00 0.00 99 1015.7
20210915113604 49 234 0.0 0.0 0.00 0.00 0.00 99 1015.6
20210915113229 49 234 0.0 0.0 0.00 0.00 0.00 99 1015.6
20210915113103 49 234 0.0 0.0 0.00 0.00 0.00 99 1015.6
20210915112605 49 234 0.0 0.0 0.00 0.00 0.00 99 1015.8
20210915112106 49 234 0.0 0.0 0.00 0.00 0.00 99 1015.6
20210915111604 49 234 0.0 0.0 0.00 0.00 0.00 99 1015.5
20210915111103 49 234 0.0 0.0 0.00 0.00 0.00 99 1015.4
20210915110606 49 234 0.0 0.0 0.00 0.00 0.00 99 1015.4
20210915110105 49 234 0.0 0.0 0.00 0.00 0.00 99 1015.4
20210915105603 49 234 0.0 0.0 0.00 0.00 0.00 99 1015.5
20210915105137 49 234 0.0 0.0 0.00 0.00 0.00 99 1015.5
20210915105103 49 234 0.0 0.0 0.00 0.00 0.00 99 1015.5
20210915104603 49 234 0.0 0.0 0.00 0.00 0.00 99 1015.3